{"data":{"norad_id":65247,"intl_designator":"2025-179N","name":"STARLINK-34923","alt_names":[],"object_type":"PAYLOAD","status":"ACTIVE","operator":null,"country":"US","launch_date":"2025-08-18","launch_site_code":"AFWTR","launch_vehicle":null,"mission":null,"orbit_class":"UNKNOWN","rcs_meters":null,"size_class":null,"mass_kg":null,"dimensions":null,"purposes":["comms"],"wikipedia_slug":null,"has_3d_model":false,"image_url":null,"decayed_at":null,"tle_current":{"epoch":"2026-09-20T14:41:28.252320Z","epoch_age_seconds":107892,"freshness":"FRESH","line1":"1 65247U 25179N   26263.61213255  .00011495  00000+0  35778-3 0  9994","line2":"2 65247  97.2834 302.9816 0001492  90.3937 269.7477 15.33449129 61375","mean_motion":15.33449129,"eccentricity":0.0001492,"inclination_deg":97.2834,"raan_deg":302.9816,"arg_perigee_deg":90.3937,"mean_anomaly_deg":269.7477,"bstar":0.00035778,"rev_number":6137,"period_min":93.905951802852,"perigee_km":464.50981425758,"apogee_km":466.55196475581,"semimajor_km":6843.6678895067,"source":"CELESTRAK","updated_at":"2026-09-21T09:00:35.560233Z"}}}